Regional Weather Roundup
Issued by NWS Jackson, KY

Home | Current Version | Previous Version | Text Only | Print | Product List | Glossary On
Versions: 1 2 3 4 5 6 7 8 9 10 11 12 13 14 15 16 17 18 19 20 21 22 23 24 25 26 27 28 29 30 31 32 33 34 35 36 37 38 39 40 41 42 43 44 45 46 47 48 49 50
000
ASUS43 KJKL 260319
RWRJKL

EAST KENTUCKY HOURLY WEATHER ROUNDUP
NATIONAL WEATHER SERVICE JACKSON KY
1000 PM EST THU DEC 25 2014

NOTE: "FAIR" INDICATES FEW OR NO CLOUDS BELOW 12,000 FEET WITH
NO SIGNIFICANT WEATHER AND/OR OBSTRUCTIONS TO VISIBILITY.

* THESE REPORTS ARE NOT UNDER NWS QUALITY CONTROL AND MAY NOT
  REPORT WEATHER SUCH AS PRECIPITATION AND FOG.

KYZ079-080-083-085-087-088-110-112-115-119-120-260400
...EASTERN KENTUCKY...

CITY           SKY/WX    TMP DP  RH WIND       PRES   REMARKS
JACKSON        CLEAR     38  30  73 SE3       30.20F
LONDON         CLEAR     33  28  81 CALM      30.19F
SOMERSET*      CLEAR     32  32 100 CALM      30.22R
MONTICELLO*    CLEAR     29  28  96 CALM      30.22S
MIDDLESBORO*   CLEAR    N/A N/A N/A SW3       30.24
HARLAN APT*    CLEAR     34  34 100 NE5       30.21F WCI  30
BIG SANDY*     CLEAR     34  32  92 E3        30.22F
MOREHEAD APT*  CLEAR     36  30  80 CALM      30.22F
$$

KYZ035-036-041-042-044-050-067-078-099-260400
...CENTRAL KENTUCKY...

CITY           SKY/WX    TMP DP  RH WIND       PRES   REMARKS
MT STERLING*   CLEAR     32  32 100 SE3       30.20F
FLEMING/MASON* CLEAR     33  30  90 S5        30.22F WCI  28
DANVILLE*      CLEAR     30  28  93 SW3       30.20R
RICHMOND*      CLEAR     34  30  86 CALM      30.18F
LEXINGTON      CLEAR     33  29  85 SE7       30.18F WCI  27
FRANKFORT      CLEAR     30  28  92 CALM      30.18F
$$

KYZ091>093-OHZ055-061-077-WVZ005-015-034-035-042-260400
...SOUTHERN OHIO/WEST VIRGINIA...

CITY           SKY/WX    TMP DP  RH WIND       PRES   REMARKS
COVINGTON      CLEAR     35  28  75 S8        30.18F WCI  29
COLUMBUS       MOCLDY    37  30  75 S6        30.21S WCI  32
DAYTON         CLEAR     35  30  82 S10       30.18S WCI  27
WILMINGTON     CLEAR     33  28  81 S7        30.19F WCI  27
HUNTINGTON     CLEAR     31  29  92 E5        30.24F WCI  26
CHARLESTON       N/A     34  31  88 CALM      30.26F
PINEVILLE*     CLEAR     31  31 100 MISG      30.28F
BECKLEY        CLEAR     30  26  85 CALM      30.21F
BLUEFIELD      CLEAR     34  27  75 W5        30.21F WCI  30
$$

VAZ002-007-008-TNZ017-027-036-066-071-260400
...SOUTHWEST VIRGINIA/EAST TENNESSEE...

CITY           SKY/WX    TMP DP  RH WIND       PRES   REMARKS
WISE*          CLEAR     34  30  86 S3        30.21S
JONESVILLE*    CLEAR     28  28 100 CALM      30.26R
ABINGDON*      CLEAR     32  29  90 CALM      30.23S
BRISTOL        CLEAR     31  28  89 CALM      30.25S
KNOXVILLE      CLEAR     38  32  79 NE5       30.23F WCI  34
OAK RIDGE      CLEAR     34  31  88 CALM      30.25R
CROSSVILLE     CLEAR     35  31  85 CALM      30.19S
NASHVILLE      CLEAR     39  34  82 S6        30.17F WCI  35
$$

...KEY TO REMARKS...
VSB - VISIBILITY IN MILES
WCI - WIND CHILL INDEX
HX  - HEAT INDEX

$$


USA.gov is the U.S. government's official web portal to all federal, state and local government web resources and services.